| time (UTC) | temp F | wind direction | speed MPH | gust MPH | rain 1hr in | rain 24hr in | rain mn in | humidity % | barometer mb |
| 20260903200143 | 64 | 71 | 2.0 | 8.0 | 0.00 | 0.23 | 0.00 | 67 | 1009.7 |
| 20260903195122 | 64 | 60 | 2.0 | 8.0 | 0.00 | 0.23 | 0.00 | 69 | 1009.6 |
| 20260903194124 | 63 | 88 | 1.0 | 5.0 | 0.00 | 0.23 | 0.00 | 71 | 1009.7 |
| 20260903193122 | 63 | 83 | 2.0 | 8.0 | 0.00 | 0.23 | 0.00 | 70 | 1009.5 |
| 20260903192122 | 62 | 114 | 2.0 | 10.0 | 0.00 | 0.23 | 0.00 | 71 | 1009.5 |
| 20260903191123 | 62 | 79 | 1.0 | 5.0 | 0.00 | 0.23 | 0.00 | 75 | 1009.6 |
| 20260903190124 | 61 | 70 | 1.0 | 5.0 | 0.00 | 0.23 | 0.00 | 79 | 1009.6 |
| 20260903185122 | 60 | 113 | 1.0 | 6.0 | 0.00 | 0.23 | 0.00 | 83 | 1009.6 |
| 20260903184122 | 60 | 116 | 2.0 | 8.0 | 0.00 | 0.23 | 0.00 | 84 | 1009.7 |
| 20260903183122 | 59 | 126 | 4.0 | 11.0 | 0.00 | 0.23 | 0.00 | 85 | 1009.7 |
| 20260903182122 | 59 | 118 | 3.0 | 10.0 | 0.00 | 0.23 | 0.00 | 87 | 1009.6 |
| 20260903181122 | 59 | 99 | 3.0 | 10.0 | 0.00 | 0.23 | 0.00 | 85 | 1009.6 |
| 20260903180145 | 59 | 90 | 2.0 | 6.0 | 0.00 | 0.23 | 0.00 | 85 | 1009.4 |
| 20260903175124 | 58 | 94 | 2.0 | 6.0 | 0.00 | 0.23 | 0.00 | 86 | 1009.3 |
| 20260903174144 | 58 | 69 | 3.0 | 11.0 | 0.00 | 0.23 | 0.00 | 86 | 1009.3 |
| 20260903173122 | 57 | 89 | 3.0 | 8.0 | 0.00 | 0.23 | 0.00 | 86 | 1009.3 |
| 20260903172122 | 57 | 114 | 2.0 | 6.0 | 0.00 | 0.23 | 0.00 | 87 | 1009.3 |
| 20260903171122 | 58 | 115 | 3.0 | 10.0 | 0.00 | 0.23 | 0.00 | 88 | 1009.1 |
| 20260903170123 | 58 | 168 | 2.0 | 11.0 | 0.00 | 0.23 | 0.00 | 86 | 1009.2 |
| 20260903165123 | 58 | 150 | 1.0 | 5.0 | 0.00 | 0.23 | 0.00 | 88 | 1009.0 |
| 20260903164124 | 58 | 125 | 3.0 | 6.0 | 0.00 | 0.21 | 0.00 | 88 | 1008.8 |
| 20260903163122 | 58 | 125 | 2.0 | 6.0 | 0.00 | 0.21 | 0.00 | 87 | 1008.7 |
| 20260903162122 | 58 | 122 | 3.0 | 8.0 | 0.00 | 0.21 | 0.00 | 86 | 1008.8 |
| 20260903161124 | 58 | 134 | 3.0 | 8.0 | 0.00 | 0.21 | 0.00 | 85 | 1008.7 |
| 20260903160124 | 58 | 195 | 1.0 | 5.0 | 0.00 | 0.21 | 0.00 | 85 | 1008.6 |
| 20260903155145 | 58 | 234 | 0.0 | 3.0 | 0.00 | 0.21 | 0.00 | 86 | 1008.5 |
| 20260903154123 | 58 | 233 | 0.0 | 3.0 | 0.00 | 0.21 | 0.00 | 88 | 1008.5 |
| 20260903153122 | 57 | 175 | 1.0 | 6.0 | 0.00 | 0.21 | 0.00 | 87 | 1008.5 |
| 20260903152122 | 57 | 125 | 4.0 | 13.0 | 0.00 | 0.21 | 0.00 | 88 | 1008.4 |
| 20260903151122 | 57 | 129 | 5.0 | 13.0 | 0.00 | 0.21 | 0.00 | 89 | 1008.4 |
| 20260903150122 | 57 | 124 | 4.0 | 11.0 | 0.00 | 0.21 | 0.00 | 89 | 1008.2 |
| 20260903145122 | 57 | 133 | 4.0 | 13.0 | 0.00 | 0.21 | 0.00 | 88 | 1008.2 |
| 20260903144122 | 57 | 130 | 4.0 | 11.0 | 0.00 | 0.21 | 0.00 | 88 | 1008.1 |
| 20260903143122 | 57 | 127 | 4.0 | 10.0 | 0.00 | 0.21 | 0.00 | 88 | 1008.0 |
| 20260903142122 | 57 | 124 | 4.0 | 11.0 | 0.00 | 0.21 | 0.00 | 89 | 1007.9 |
| 20260903141124 | 57 | 119 | 3.0 | 11.0 | 0.00 | 0.21 | 0.00 | 89 | 1007.7 |
| 20260903140122 | 57 | 125 | 4.0 | 11.0 | 0.00 | 0.21 | 0.00 | 88 | 1007.7 |
| 20260903135122 | 57 | 123 | 5.0 | 14.0 | 0.00 | 0.21 | 0.00 | 88 | 1007.6 |
| 20260903134124 | 57 | 124 | 6.0 | 18.0 | 0.00 | 0.21 | 0.00 | 88 | 1007.7 |
| 20260903133124 | 57 | 128 | 4.0 | 13.0 | 0.00 | 0.21 | 0.00 | 88 | 1007.6 |
| 20260903132123 | 57 | 133 | 4.0 | 14.0 | 0.00 | 0.21 | 0.00 | 88 | 1007.6 |
| 20260903131124 | 57 | 129 | 5.0 | 11.0 | 0.00 | 0.21 | 0.00 | 88 | 1007.3 |
| 20260903130122 | 57 | 130 | 4.0 | 11.0 | 0.00 | 0.21 | 0.00 | 88 | 1007.3 |
| 20260903125124 | 57 | 120 | 4.0 | 13.0 | 0.00 | 0.21 | 0.00 | 87 | 1007.1 |
| 20260903124122 | 57 | 141 | 5.0 | 14.0 | 0.00 | 0.21 | 0.00 | 87 | 1007.0 |
| 20260903123145 | 57 | 122 | 5.0 | 14.0 | 0.00 | 0.21 | 0.00 | 88 | 1007.0 |
| 20260903122122 | 57 | 125 | 5.0 | 14.0 | 0.00 | 0.21 | 0.00 | 87 | 1006.9 |
| 20260903121122 | 57 | 127 | 5.0 | 13.0 | 0.00 | 0.21 | 0.00 | 88 | 1006.9 |
| 20260903120124 | 57 | 131 | 5.0 | 14.0 | 0.00 | 0.21 | 0.00 | 88 | 1006.9 |
| 20260903115122 | 57 | 127 | 5.0 | 14.0 | 0.00 | 0.21 | 0.00 | 88 | 1006.7 |
| 20260903114122 | 57 | 123 | 4.0 | 11.0 | 0.00 | 0.21 | 0.00 | 88 | 1006.7 |
| 20260903113143 | 57 | 112 | 3.0 | 10.0 | 0.00 | 0.21 | 0.00 | 88 | 1006.6 |
| 20260903112525 | 57 | 123 | 4.0 | 11.0 | 0.00 | 0.21 | 0.00 | 88 | 1006.6 |
| 20260903111122 | 57 | 132 | 3.0 | 8.0 | 0.00 | 0.21 | 0.00 | 88 | 1006.6 |
| 20260903110122 | 57 | 128 | 4.0 | 11.0 | 0.00 | 0.21 | 0.00 | 88 | 1006.6 |
| 20260903105145 | 57 | 120 | 3.0 | 10.0 | 0.00 | 0.21 | 0.00 | 88 | 1006.5 |
| 20260903104122 | 57 | 125 | 4.0 | 13.0 | 0.00 | 0.21 | 0.00 | 88 | 1006.5 |
| 20260903103143 | 58 | 126 | 4.0 | 11.0 | 0.00 | 0.21 | 0.00 | 87 | 1006.4 |
| 20260903102122 | 58 | 121 | 4.0 | 13.0 | 0.00 | 0.21 | 0.00 | 86 | 1006.3 |
| 20260903101122 | 58 | 123 | 4.0 | 11.0 | 0.00 | 0.21 | 0.00 | 86 | 1006.3 |
| 20260903100125 | 58 | 127 | 3.0 | 6.0 | 0.00 | 0.21 | 0.00 | 86 | 1006.3 |
| 20260903095124 | 58 | 126 | 2.0 | 6.0 | 0.00 | 0.21 | 0.00 | 86 | 1006.3 |
| 20260903094122 | 58 | 123 | 2.0 | 6.0 | 0.00 | 0.21 | 0.00 | 87 | 1006.2 |
| 20260903093122 | 58 | 128 | 2.0 | 6.0 | 0.00 | 0.21 | 0.00 | 87 | 1006.2 |
| 20260903092144 | 58 | 117 | 3.0 | 10.0 | 0.00 | 0.21 | 0.00 | 87 | 1006.2 |
| 20260903091122 | 58 | 124 | 3.0 | 8.0 | 0.00 | 0.21 | 0.00 | 87 | 1006.1 |
| 20260903090122 | 58 | 120 | 3.0 | 11.0 | 0.00 | 0.21 | 0.00 | 87 | 1006.2 |
| 20260903085123 | 58 | 119 | 3.0 | 6.0 | 0.00 | 0.21 | 0.00 | 88 | 1006.4 |
| 20260903084122 | 58 | 114 | 2.0 | 6.0 | 0.00 | 0.21 | 0.00 | 88 | 1006.4 |
| 20260903083122 | 58 | 124 | 2.0 | 6.0 | 0.00 | 0.21 | 0.00 | 88 | 1006.3 |
| 20260903082122 | 58 | 106 | 2.0 | 6.0 | 0.00 | 0.21 | 0.00 | 88 | 1006.4 |
| 20260903081122 | 58 | 118 | 2.0 | 6.0 | 0.00 | 0.21 | 0.00 | 88 | 1006.3 |
| 20260903080143 | 58 | 140 | 2.0 | 5.0 | 0.00 | 0.21 | 0.00 | 88 | 1006.3 |
| 20260903075125 | 58 | 124 | 2.0 | 5.0 | 0.00 | 0.21 | 0.00 | 87 | 1006.2 |
| 20260903074124 | 58 | 121 | 2.0 | 6.0 | 0.00 | 0.21 | 0.00 | 86 | 1006.2 |
| 20260903073122 | 58 | 121 | 2.0 | 6.0 | 0.00 | 0.21 | 0.00 | 85 | 1006.1 |
| 20260903072122 | 58 | 123 | 3.0 | 13.0 | 0.00 | 0.21 | 0.00 | 87 | 1005.9 |
| 20260903071122 | 58 | 118 | 3.0 | 11.0 | 0.00 | 0.21 | 0.00 | 86 | 1005.9 |
| 20260903070122 | 58 | 126 | 4.0 | 13.0 | 0.00 | 0.21 | 0.00 | 85 | 1005.9 |
| 20260903065144 | 58 | 132 | 4.0 | 11.0 | 0.00 | 0.23 | 0.21 | 85 | 1005.8 |
| 20260903064122 | 58 | 136 | 4.0 | 11.0 | 0.00 | 0.23 | 0.21 | 85 | 1005.9 |
| 20260903063127 | 58 | 147 | 4.0 | 11.0 | 0.00 | 0.23 | 0.21 | 84 | 1005.8 |
| 20260903063122 | 58 | 148 | 4.0 | 11.0 | 0.00 | 0.23 | 0.21 | 84 | 1005.8 |
| 20260903062122 | 58 | 148 | 5.0 | 13.0 | 0.00 | 0.23 | 0.21 | 84 | 1005.8 |
| 20260903061122 | 58 | 143 | 3.0 | 10.0 | 0.00 | 0.23 | 0.21 | 84 | 1005.7 |
| 20260903060148 | 58 | 137 | 5.0 | 13.0 | 0.00 | 0.23 | 0.21 | 84 | 1005.7 |
| 20260903060143 | 58 | 136 | 5.0 | 13.0 | 0.00 | 0.23 | 0.21 | 84 | 1005.8 |
| 20260903055125 | 58 | 134 | 5.0 | 14.0 | 0.00 | 0.23 | 0.21 | 84 | 1005.6 |
| 20260903054122 | 59 | 144 | 4.0 | 11.0 | 0.00 | 0.23 | 0.21 | 84 | 1005.6 |
| 20260903053122 | 59 | 135 | 4.0 | 11.0 | 0.00 | 0.23 | 0.21 | 84 | 1005.7 |
| 20260903052123 | 59 | 126 | 4.0 | 13.0 | 0.00 | 0.23 | 0.21 | 85 | 1005.6 |
| 20260903051124 | 59 | 124 | 4.0 | 11.0 | 0.00 | 0.23 | 0.21 | 85 | 1005.4 |
| 20260903050123 | 59 | 124 | 5.0 | 13.0 | 0.00 | 0.23 | 0.21 | 85 | 1005.2 |
| 20260903045122 | 59 | 129 | 4.0 | 13.0 | 0.00 | 0.23 | 0.21 | 86 | 1005.0 |
| 20260903044122 | 59 | 135 | 3.0 | 11.0 | 0.00 | 0.23 | 0.21 | 85 | 1004.8 |
| 20260903043123 | 59 | 158 | 3.0 | 10.0 | 0.00 | 0.23 | 0.21 | 86 | 1004.6 |
| 20260903042122 | 59 | 152 | 4.0 | 16.0 | 0.00 | 0.23 | 0.21 | 86 | 1004.5 |
| 20260903041122 | 59 | 157 | 4.0 | 16.0 | 0.00 | 0.23 | 0.21 | 87 | 1004.2 |
| 20260903040124 | 59 | 150 | 4.0 | 14.0 | 0.00 | 0.23 | 0.21 | 87 | 1004.0 |
| 20260903035123 | 59 | 144 | 8.0 | 24.0 | 0.00 | 0.23 | 0.21 | 88 | 1003.8 |
| 20260903034143 | 59 | 140 | 5.0 | 13.0 | 0.01 | 0.23 | 0.21 | 92 | 1003.4 |
| 20260903033143 | 58 | 130 | 4.0 | 13.0 | 0.02 | 0.23 | 0.21 | 92 | 1003.2 |
| 20260903032145 | 59 | 128 | 3.0 | 10.0 | 0.03 | 0.23 | 0.21 | 92 | 1003.0 |
| 20260903031123 | 59 | 119 | 2.0 | 6.0 | 0.05 | 0.23 | 0.21 | 92 | 1002.9 |
| 20260903030122 | 59 | 112 | 2.0 | 6.0 | 0.05 | 0.23 | 0.21 | 92 | 1002.8 |
| 20260903025123 | 59 | 118 | 0.0 | 5.0 | 0.03 | 0.21 | 0.20 | 92 | 1002.8 |
| 20260903024123 | 59 | 129 | 3.0 | 11.0 | 0.03 | 0.20 | 0.20 | 90 | 1002.8 |
| 20260903023122 | 59 | 118 | 4.0 | 13.0 | 0.03 | 0.20 | 0.18 | 90 | 1002.7 |
| 20260903022143 | 59 | 115 | 4.0 | 13.0 | 0.05 | 0.18 | 0.18 | 90 | 1002.6 |
| 20260903021122 | 59 | 116 | 5.0 | 16.0 | 0.05 | 0.18 | 0.17 | 90 | 1002.5 |
| 20260903020122 | 59 | 122 | 4.0 | 13.0 | 0.05 | 0.18 | 0.17 | 91 | 1002.5 |
| 20260903015122 | 59 | 102 | 3.0 | 14.0 | 0.05 | 0.18 | 0.17 | 90 | 1002.5 |
| 20260903014122 | 59 | 102 | 4.0 | 11.0 | 0.05 | 0.17 | 0.15 | 88 | 1002.7 |
| 20260903013122 | 60 | 114 | 3.0 | 13.0 | 0.02 | 0.15 | 0.14 | 87 | 1002.7 |
| 20260903012143 | 60 | 123 | 3.0 | 11.0 | 0.01 | 0.14 | 0.12 | 85 | 1002.6 |
| 20260903011122 | 60 | 131 | 4.0 | 13.0 | 0.00 | 0.12 | 0.11 | 82 | 1002.7 |
| 20260903010122 | 61 | 136 | 5.0 | 23.0 | 0.00 | 0.11 | 0.10 | 81 | 1002.7 |
| 20260903005122 | 61 | 140 | 5.0 | 16.0 | 0.00 | 0.11 | 0.10 | 81 | 1002.8 |
| 20260903004122 | 61 | 128 | 4.0 | 18.0 | 0.05 | 0.11 | 0.10 | 82 | 1002.9 |
| 20260903003122 | 61 | 131 | 6.0 | 18.0 | 0.05 | 0.11 | 0.10 | 81 | 1002.9 |
| 20260903002143 | 61 | 138 | 3.0 | 14.0 | 0.05 | 0.11 | 0.10 | 82 | 1002.8 |
| 20260903001122 | 61 | 183 | 1.0 | 5.0 | 0.05 | 0.11 | 0.10 | 83 | 1002.8 |
| 20260903000122 | 62 | 133 | 4.0 | 11.0 | 0.05 | 0.10 | 0.10 | 82 | 1002.9 |
| 20260902235122 | 62 | 131 | 2.0 | 8.0 | 0.05 | 0.10 | 0.10 | 83 | 1002.9 |
| 20260902234122 | 63 | 126 | 5.0 | 16.0 | 0.01 | 0.07 | 0.05 | 79 | 1002.7 |
| 20260902233123 | 62 | 148 | 4.0 | 16.0 | 0.01 | 0.05 | 0.05 | 80 | 1002.6 |
| 20260902232122 | 62 | 133 | 3.0 | 11.0 | 0.02 | 0.05 | 0.05 | 84 | 1002.5 |
| 20260902231122 | 62 | 131 | 4.0 | 13.0 | 0.02 | 0.05 | 0.05 | 85 | 1002.5 |
| 20260902230122 | 62 | 135 | 4.0 | 10.0 | 0.02 | 0.05 | 0.05 | 86 | 1002.5 |
| 20260902225122 | 62 | 127 | 3.0 | 10.0 | 0.01 | 0.05 | 0.03 | 86 | 1002.5 |
| 20260902224122 | 63 | 126 | 4.0 | 11.0 | 0.02 | 0.05 | 0.03 | 85 | 1002.4 |
| 20260902223122 | 63 | 123 | 4.0 | 11.0 | 0.01 | 0.03 | 0.02 | 84 | 1002.3 |
| 20260902222122 | 63 | 116 | 4.0 | 13.0 | 0.00 | 0.02 | 0.01 | 81 | 1002.2 |
| 20260902221122 | 63 | 120 | 4.0 | 11.0 | 0.00 | 0.02 | 0.01 | 81 | 1002.4 |
| 20260902220122 | 64 | 123 | 4.0 | 13.0 | 0.01 | 0.02 | 0.01 | 82 | 1002.5 |
| 20260902215123 | 64 | 102 | 3.0 | 11.0 | 0.01 | 0.02 | 0.01 | 80 | 1002.6 |
| 20260902214143 | 64 | 87 | 3.0 | 11.0 | 0.00 | 0.01 | 0.00 | 79 | 1002.8 |
| 20260902213122 | 64 | 94 | 2.0 | 6.0 | 0.00 | 0.01 | 0.00 | 80 | 1002.5 |
| 20260902212125 | 65 | 78 | 3.0 | 11.0 | 0.00 | 0.01 | 0.00 | 79 | 1002.6 |
| 20260902211122 | 66 | 84 | 3.0 | 13.0 | 0.00 | 0.01 | 0.00 | 77 | 1002.8 |
| 20260902210122 | 66 | 126 | 4.0 | 13.0 | 0.00 | 0.00 | 0.00 | 74 | 1002.7 |
| 20260902205124 | 68 | 118 | 4.0 | 14.0 | 0.00 | 0.00 | 0.00 | 70 | 1002.7 |
| 20260902204122 | 69 | 119 | 3.0 | 11.0 | 0.00 | 0.00 | 0.00 | 62 | 1002.6 |
| 20260902203143 | 70 | 127 | 3.0 | 14.0 | 0.00 | 0.00 | 0.00 | 60 | 1002.6 |
| 20260902202124 | 70 | 194 | 4.0 | 11.0 | 0.00 | 0.00 | 0.00 | 56 | 1002.8 |
| 20260902201122 | 70 | 183 | 2.0 | 10.0 | 0.00 | 0.00 | 0.00 | 56 | 1002.7 |